Location: Arboyeti
(42.1122°N, 44.6017°E)
Time: 05:07:06
(UTC+00:00)

NOSS 0 Rocket - Pass Details

Date: 19 April 2021
Orbit: 935 x 955 km, 70.0° (Epoch: 09 May)

Event Time Altitude Azimuth Distance (km) Brightness Sun altitude
Rises 17:39:44 0° 333° (NNW) 3,626 8.1 -19.4°
Reaches altitude 10° 17:42:16 10° 333° (NNW) 2,680 7.2 -19.8°
Maximum altitude 17:48:31 86° 247° (WSW) 960 3.9 -20.7°
Enters shadow 17:51:23 35° 159° (SSE) 1,500 4.5 -21.1°
